2023/01/30 00:00:00,60.6,-3.3
2023/01/30 00:10:00,60.5,-3.3
2023/01/30 00:20:00,60.5,-3.4
2023/01/30 00:30:00,60.5,-3.3
2023/01/30 00:40:00,60.5,-2.4
2023/01/30 00:50:00,60.6,-2.4
2023/01/30 01:00:00,60.7,-1.7
2023/01/30 01:10:00,60.7,-2.0
2023/01/30 01:20:00,60.7,-2.3
2023/01/30 01:30:00,60.7,-2.7
2023/01/30 01:40:00,60.7,-2.6
2023/01/30 01:50:00,61.0,-2.4
2023/01/30 02:00:00,61.3,-2.4
2023/01/30 02:10:00,61.5,-2.0
2023/01/30 02:20:00,61.4,-2.2
2023/01/30 02:30:00,61.3,-2.3
2023/01/30 02:40:00,61.2,-2.4
2023/01/30 02:50:00,61.2,-2.2
2023/01/30 03:00:00,61.1,-2.2
2023/01/30 03:10:00,61.0,-2.4
2023/01/30 03:20:00,61.3,-1.8
2023/01/30 03:30:00,62.4,-2.0
2023/01/30 03:40:00,62.5,-2.0
2023/01/30 03:50:00,62.3,-1.6
2023/01/30 04:00:00,62.3,-2.0
2023/01/30 04:10:00,62.3,-2.1
2023/01/30 04:20:00,62.3,-1.8
2023/01/30 04:30:00,62.6,-2.0
2023/01/30 04:40:00,62.7,-1.7
2023/01/30 04:50:00,62.6,-2.0
2023/01/30 05:00:00,62.5,-1.9
2023/01/30 05:10:00,62.6,-2.0
2023/01/30 05:20:00,63.0,-1.6
2023/01/30 05:30:00,62.9,-1.7
2023/01/30 05:40:00,62.9,-1.6
2023/01/30 05:50:00,63.1,-1.6
2023/01/30 06:00:00,63.4,-1.5
2023/01/30 06:10:00,63.4,-1.5
2023/01/30 06:20:00,63.4,-1.4
2023/01/30 06:30:00,63.5,-1.4
2023/01/30 06:40:00,64.0,-1.4
2023/01/30 06:50:00,64.0,-1.6
2023/01/30 07:00:00,63.9,-1.7
2023/01/30 07:10:00,63.8,-1.6
2023/01/30 07:20:00,63.9,-1.7
2023/01/30 07:30:00,63.8,-1.7
2023/01/30 07:40:00,63.7,-1.6
2023/01/30 07:50:00,63.7,-1.7
2023/01/30 08:00:00,63.7,-2.1
2023/01/30 08:10:00,63.7,-1.5
2023/01/30 08:20:00,63.6,-0.9
2023/01/30 08:30:00,63.6,-0.6
2023/01/30 08:40:00,63.5,-1.0
2023/01/30 08:50:00,63.7,-0.8
2023/01/30 09:00:00,63.9,-1.3
2023/01/30 09:10:00,64.2,-1.0
2023/01/30 09:20:00,64.3,-1.0
2023/01/30 09:30:00,64.6,-0.7
2023/01/30 09:40:00,64.5,-0.6
2023/01/30 09:50:00,64.3,-0.4
2023/01/30 10:00:00,64.5,-0.2
2023/01/30 10:10:00,64.5,-0.5
2023/01/30 10:20:00,64.3,-0.3
2023/01/30 10:30:00,64.3,-0.6
2023/01/30 10:40:00,64.7,-0.5
2023/01/30 10:50:00,64.7,-0.4
2023/01/30 11:00:00,64.5,-0.4
2023/01/30 11:10:00,64.4,-0.3
2023/01/30 11:20:00,64.5,-0.0
2023/01/30 11:30:00,64.2,-0.2
2023/01/30 11:40:00,64.3,-0.5
2023/01/30 11:50:00,64.7,-0.4
2023/01/30 12:00:00,65.3,-0.2
2023/01/30 12:10:00,65.4,-0.2
2023/01/30 12:20:00,65.8,-0.2
2023/01/30 12:30:00,66.4,-0.2
2023/01/30 12:40:00,66.8,-0.2
2023/01/30 12:50:00,66.6, 0.3
2023/01/30 13:00:00,66.7,-0.1
2023/01/30 13:10:00,67.1,-0.4
2023/01/30 13:20:00,67.5,-1.0
2023/01/30 13:30:00,67.3,-0.7
2023/01/30 13:40:00,67.4,-0.0
2023/01/30 13:50:00,67.3,-0.1
2023/01/30 14:00:00,67.2,-0.1
2023/01/30 14:10:00,67.1,-0.2
2023/01/30 14:20:00,67.2,-0.2
2023/01/30 14:30:00,67.2,-0.2
2023/01/30 14:40:00,67.1,-0.4
2023/01/30 14:50:00,67.5,-0.4
2023/01/30 15:00:00,67.5,-0.5
2023/01/30 15:10:00,67.3,-0.2
2023/01/30 15:20:00,67.5,-0.3
2023/01/30 15:30:00,67.4,-0.5
2023/01/30 15:40:00,67.3,-0.8
2023/01/30 15:50:00,67.2,-1.1
2023/01/30 16:00:00,67.1,-1.2
2023/01/30 16:10:00,66.8,-1.1
2023/01/30 16:20:00,66.8,-1.3
2023/01/30 16:30:00,66.9,-1.4
2023/01/30 16:40:00,66.9,-1.3
2023/01/30 16:50:00,66.9,-1.1
2023/01/30 17:00:00,66.9,-1.3
2023/01/30 17:10:00,67.0,-1.2
2023/01/30 17:20:00,67.1,-1.3
2023/01/30 17:30:00,67.2,-1.4
2023/01/30 17:40:00,67.4,-0.8
2023/01/30 17:50:00,67.8,-1.5
2023/01/30 18:00:00,68.1,-0.9
2023/01/30 18:10:00,68.5,-1.7
2023/01/30 18:20:00,68.6,-1.3
2023/01/30 18:30:00,68.4,-1.6
2023/01/30 18:40:00,68.2,-1.5
2023/01/30 18:50:00,68.1,-1.0
2023/01/30 19:00:00,68.0,-1.6
2023/01/30 19:10:00,68.0,-1.7
2023/01/30 19:20:00,68.0,-1.8
2023/01/30 19:30:00,68.0,-1.7
2023/01/30 19:40:00,68.0,-1.6
2023/01/30 19:50:00,68.0,-1.9
2023/01/30 20:00:00,68.0,-1.7
2023/01/30 20:10:00,67.8,-1.6
2023/01/30 20:20:00,67.7,-1.9
2023/01/30 20:30:00,67.5,-1.7
2023/01/30 20:40:00,67.5,-1.7
2023/01/30 20:50:00,67.5,-1.8
2023/01/30 21:00:00,67.4,-1.8
2023/01/30 21:10:00,67.1,-1.8
2023/01/30 21:20:00,67.0,-1.8
2023/01/30 21:30:00,67.0,-1.8
2023/01/30 21:40:00,67.0,-1.8
2023/01/30 21:50:00,66.9,-1.7
2023/01/30 22:00:00,67.0,-1.7
2023/01/30 22:10:00,67.1,-1.4
2023/01/30 22:20:00,67.1,-1.6
2023/01/30 22:30:00,67.2,-1.5
2023/01/30 22:40:00,67.2,-1.4
2023/01/30 22:50:00,67.4,-1.8
2023/01/30 23:00:00,67.4,-1.7
2023/01/30 23:10:00,67.3,-1.8
2023/01/30 23:20:00,67.1,-1.7
2023/01/30 23:30:00,66.9,-1.9
2023/01/30 23:40:00,66.7,-1.7
2023/01/30 23:50:00,67.1,-1.9
